This is the latest recevied weather packets stored in our database for station/object KD9NSC. If no packets are shown the sender has not sent any weather packets the latest 10 day(s).
| Time | Temp. | Humidity | Pressure | Rain* | Wind** | Luminosity | Snow |
|---|---|---|---|---|---|---|---|
| 1777746663 | 10.56° C | 45% | 1021.4 hPa | 0 mm | - | 36 W/m² | - |
| 1777746358 | 10° C | 45% | 1021.5 hPa | 0 mm | - | 174 W/m² | - |
| 1777746054 | 10° C | 50% | 1021.4 hPa | 0 mm | - | 201 W/m² | - |
| 1777745751 | 9.44° C | 48% | 1021.5 hPa | 0 mm | - | 116 W/m² | - |
| 1777745450 | 10° C | 48% | 1021.8 hPa | 0 mm | - | 94 W/m² | - |
| 1777745146 | 10° C | 54% | 1021.7 hPa | 0 mm | - | 71 W/m² | - |
| 1777744838 | 10° C | 51% | 1021.6 hPa | 0 mm | - | 55 W/m² | - |
| 1777744532 | 10° C | 52% | 1021.7 hPa | 0 mm | - | 80 W/m² | - |
| 1777744228 | 10° C | 53% | 1021.8 hPa | 0 mm | - | 39 W/m² | - |
| 1777743926 | 10° C | 51% | 1021.9 hPa | 0 mm | - | 77 W/m² | - |
| 1777743622 | 10.56° C | 49% | 1021.8 hPa | 0 mm | - | 176 W/m² | - |
| 1777743319 | 11.11° C | 51% | 1022 hPa | 0 mm | - | 29 W/m² | - |
| 1777743018 | 11.11° C | 53% | 1021.9 hPa | 0 mm | - | 54 W/m² | - |
| 1777742714 | 11.67° C | 48% | 1022 hPa | 0 mm | - | 187 W/m² | - |
| 1777742410 | 11.67° C | 54% | 1022 hPa | 0 mm | - | 384 W/m² | - |
| 1777742106 | 11.11° C | 51% | 1022.1 hPa | 0 mm | - | 158 W/m² | - |
| 1777741804 | 11.67° C | 52% | 1022.2 hPa | 0 mm | - | 196 W/m² | - |
| 1777741500 | 11.11° C | 52% | 1022.1 hPa | 0 mm | - | 272 W/m² | - |
| 1777741196 | 11.67° C | 51% | 1022.3 hPa | 0 mm | - | 294 W/m² | - |
| 1777740894 | 11.67° C | 52% | 1022.1 hPa | 0 mm | - | 181 W/m² | - |
| 1777740591 | 11.67° C | 53% | 1022.3 hPa | 0 mm | - | 331 W/m² | - |
| 1777740287 | 12.78° C | 49% | 1022.3 hPa | 0 mm | - | 399 W/m² | - |
| 1777739984 | 12.78° C | 49% | 1022.4 hPa | 0 mm | - | 361 W/m² | - |
| 1777739679 | 12.22° C | 50% | 1022.4 hPa | 0 mm | - | 459 W/m² | - |
| 1777739377 | 12.78° C | 50% | 1022.4 hPa | 0 mm | - | 533 W/m² | - |
* Rain latest hour (hover to see other rain measurements)
** Current wind speed in m/s (hover to see current wind gust speed)